User: anonymous   Login
Location: Nairn
(57.5833°N, 3.8667°W)
Time: 12:18:41
(UTC+00:00)
Language:

Cosmos 1455 Rocket - Orbit

View from above orbital plane
View from above orbital plane
View from above satellite
View from above satellite

Ground track
Ground track

The orbit data is extracted from the following two-line orbital elements,

1 14033U 83037B   20296.93464680 +.00000091 +00000-0 +80165-5 0  9996
2 14033 082.5042 278.0810 0018822 042.1112 318.1545 14.83821578639970
Epoch (UTC): 22 October 2020 22:25:53
Eccentricity: 0.0018822
inclination: 82.5042°
perigee height: 604 km
apogee height: 630 km
right ascension of ascending node: 278.0810°
argument of perigee: 42.1112°
revolutions per day: 14.83821578
mean anomaly at epoch: 318.1545°
orbit number at epoch: 63997

The dashed part of the orbit path shows where the satellite is in the earth's shadow,  

DLR